EFW61U LEAL-EGKK

Flight info

Callsign EFW61U
Flight time N/A
Altitude 36000
Route MITOS N608 COMPI Y90 USKAR DCT MOPAS DCT GIROM DCT GONUP DCT MANAK DCT EPAPU UM184 EKRAS UT507 REVTU/N0439F340 UP88 VASUX
Aircraft A320/M-SDE3FGHIJ1RWXY/SB1

Departure

Time N/A
Airport Alicante-Elche Miguel Hernández Airport (LEAL)

Arrival

Time 2026-05-07 12:47
Airport London Gatwick Airport (EGKK)
Time Latitude Longitude Altitude Speed Heading
2026-05-07 12:12 48.67864 -1.48301 36073 ft 458 kts 355°
2026-05-07 12:12 48.74223 -1.48746 36071 ft 458 kts 355°
2026-05-07 12:13 48.80589 -1.49209 36066 ft 457 kts 355°
2026-05-07 12:13 48.86941 -1.49682 36065 ft 457 kts 355°
2026-05-07 12:14 48.93221 -1.50936 36067 ft 454 kts 346°
2026-05-07 12:14 48.99402 -1.52945 36065 ft 454 kts 346°
2026-05-07 12:15 49.05591 -1.54944 36066 ft 455 kts 346°
2026-05-07 12:15 49.11774 -1.56935 36069 ft 454 kts 346°
2026-05-07 12:16 49.17966 -1.58937 36076 ft 454 kts 346°
2026-05-07 12:16 49.24190 -1.60957 36072 ft 454 kts 346°
2026-05-07 12:17 49.30376 -1.62965 36074 ft 454 kts 346°
2026-05-07 12:17 49.36553 -1.64979 36072 ft 454 kts 346°
2026-05-07 12:18 49.42734 -1.67009 35838 ft 454 kts 346°
2026-05-07 12:18 49.45825 -1.68022 35589 ft 453 kts 346°
2026-05-07 12:18 49.48904 -1.69028 35342 ft 453 kts 346°
2026-05-07 12:18 49.51986 -1.70035 35108 ft 452 kts 346°
2026-05-07 12:19 49.55066 -1.71014 34862 ft 452 kts 349°
2026-05-07 12:19 49.58204 -1.71443 34619 ft 453 kts 358°
2026-05-07 12:19 49.61344 -1.71087 34381 ft 454 kts
2026-05-07 12:19 49.64430 -1.69961 34150 ft 458 kts 17°
2026-05-07 12:20 49.67434 -1.68314 34013 ft 458 kts 18°
2026-05-07 12:20 49.73445 -1.64993 34056 ft 459 kts 18°
2026-05-07 12:21 49.79469 -1.61670 33853 ft 461 kts 18°
2026-05-07 12:21 49.82501 -1.59994 32921 ft 465 kts 18°
2026-05-07 12:21 49.85548 -1.58302 32079 ft 466 kts 18°
2026-05-07 12:21 49.88589 -1.56608 31539 ft 461 kts 18°
2026-05-07 12:22 49.91598 -1.54928 30965 ft 458 kts 18°
2026-05-07 12:22 49.94586 -1.53252 30407 ft 455 kts 18°
2026-05-07 12:22 49.97553 -1.51588 29820 ft 452 kts 18°
2026-05-07 12:22 50.00499 -1.49946 29241 ft 447 kts 17°
2026-05-07 12:23 50.03426 -1.48406 28694 ft 441 kts 16°
2026-05-07 12:23 50.06344 -1.46969 28145 ft 437 kts 15°
2026-05-07 12:23 50.09230 -1.45603 27616 ft 432 kts 15°
2026-05-07 12:23 50.12102 -1.44254 27089 ft 428 kts 15°
2026-05-07 12:24 50.14940 -1.42912 26562 ft 425 kts 15°
2026-05-07 12:24 50.17756 -1.41561 26054 ft 422 kts 16°
2026-05-07 12:24 50.20545 -1.40201 25540 ft 419 kts 16°
2026-05-07 12:24 50.23353 -1.38819 25044 ft 416 kts 16°
2026-05-07 12:25 50.26108 -1.37460 24545 ft 414 kts 16°
2026-05-07 12:25 50.28847 -1.36106 24086 ft 412 kts 16°
2026-05-07 12:25 50.31571 -1.34759 23613 ft 410 kts 16°
2026-05-07 12:25 50.34282 -1.33418 23109 ft 407 kts 16°
2026-05-07 12:26 50.36973 -1.32080 22658 ft 404 kts 16°
2026-05-07 12:26 50.39641 -1.30756 22203 ft 401 kts 16°
2026-05-07 12:26 50.42290 -1.29444 21759 ft 398 kts 16°
2026-05-07 12:26 50.44923 -1.28138 21297 ft 396 kts 16°
2026-05-07 12:27 50.47545 -1.26833 20833 ft 393 kts 17°
2026-05-07 12:27 50.50053 -1.25156 20372 ft 392 kts 28°
2026-05-07 12:27 50.52320 -1.22796 19886 ft 391 kts 39°
2026-05-07 12:27 50.54397 -1.20051 19406 ft 389 kts 39°
2026-05-07 12:28 50.56463 -1.17322 18910 ft 387 kts 39°
2026-05-07 12:28 50.58528 -1.14605 18416 ft 386 kts 39°
2026-05-07 12:28 50.60583 -1.11902 17870 ft 384 kts 39°
2026-05-07 12:28 50.62619 -1.09223 17379 ft 380 kts 39°
2026-05-07 12:29 50.64638 -1.06564 16887 ft 376 kts 40°
2026-05-07 12:29 50.66512 -1.03718 16387 ft 373 kts 50°
2026-05-07 12:29 50.68131 -1.00599 16107 ft 358 kts 51°
2026-05-07 12:29 50.69682 -0.97608 15605 ft 348 kts 51°
2026-05-07 12:30 50.71200 -0.94681 14997 ft 343 kts 51°
2026-05-07 12:30 50.72704 -0.91773 14509 ft 340 kts 51°
2026-05-07 12:30 50.74194 -0.88890 14056 ft 337 kts 52°
2026-05-07 12:30 50.75669 -0.86041 13576 ft 335 kts 52°
2026-05-07 12:31 50.77132 -0.83218 13419 ft 330 kts 51°
2026-05-07 12:31 50.78588 -0.80400 13318 ft 332 kts 52°
2026-05-07 12:31 50.80026 -0.77551 13170 ft 331 kts 56°
2026-05-07 12:31 50.81103 -0.74355 13000 ft 329 kts 70°
2026-05-07 12:32 50.81540 -0.72017 12659 ft 329 kts 80°
2026-05-07 12:32 50.81943 -0.68472 12235 ft 326 kts 81°
2026-05-07 12:32 50.82341 -0.64957 11825 ft 324 kts 81°
2026-05-07 12:32 50.82742 -0.61459 11418 ft 322 kts 81°
2026-05-07 12:33 50.83543 -0.54533 10600 ft 319 kts 81°
2026-05-07 12:33 50.83941 -0.51093 10207 ft 317 kts 81°
2026-05-07 12:33 50.84337 -0.47668 9789 ft 316 kts 81°
2026-05-07 12:34 50.84729 -0.44277 9393 ft 307 kts 81°
2026-05-07 12:34 50.85107 -0.41007 8988 ft 297 kts 81°
2026-05-07 12:34 50.85473 -0.37838 8594 ft 288 kts 81°
2026-05-07 12:34 50.85824 -0.34754 8207 ft 283 kts 81°
2026-05-07 12:35 50.86169 -0.31698 7824 ft 282 kts 81°
2026-05-07 12:35 50.86512 -0.28646 7531 ft 280 kts 80°
2026-05-07 12:35 50.86851 -0.25618 7204 ft 279 kts 80°
2026-05-07 12:35 50.87181 -0.22630 7076 ft 270 kts 80°
2026-05-07 12:36 50.87494 -0.19772 7074 ft 257 kts 80°
2026-05-07 12:36 50.87790 -0.17056 7085 ft 247 kts 80°
2026-05-07 12:36 50.88085 -0.14388 7081 ft 245 kts 80°
2026-05-07 12:36 50.88386 -0.11724 7082 ft 246 kts 80°
2026-05-07 12:37 50.88686 -0.09068 7083 ft 245 kts 80°
2026-05-07 12:37 50.89133 -0.06442 7081 ft 245 kts 59°
2026-05-07 12:37 50.90365 -0.04664 7082 ft 243 kts 20°
2026-05-07 12:37 50.92017 -0.04493 7080 ft 241 kts 340°
2026-05-07 12:38 50.93409 -0.05915 6882 ft 240 kts 310°
2026-05-07 12:38 50.94310 -0.08106 6636 ft 237 kts 296°
2026-05-07 12:38 50.95097 -0.10401 6386 ft 236 kts 299°
2026-05-07 12:38 50.95937 -0.12631 6119 ft 235 kts 301°
2026-05-07 12:39 50.96795 -0.14835 5853 ft 234 kts 301°
2026-05-07 12:39 50.97651 -0.17022 5587 ft 233 kts 301°
2026-05-07 12:39 50.98448 -0.19248 5344 ft 231 kts 291°
2026-05-07 12:39 50.98908 -0.21674 5095 ft 229 kts 284°
2026-05-07 12:40 50.99303 -0.24132 4976 ft 230 kts 284°
2026-05-07 12:40 50.99696 -0.26591 4849 ft 230 kts 284°
2026-05-07 12:40 51.00090 -0.29051 4716 ft 230 kts 284°
2026-05-07 12:40 51.00486 -0.31510 4584 ft 229 kts 284°
2026-05-07 12:41 51.00878 -0.33960 4448 ft 229 kts 284°
2026-05-07 12:41 51.01269 -0.36408 4319 ft 229 kts 284°
2026-05-07 12:41 51.01656 -0.38835 4190 ft 223 kts 284°
2026-05-07 12:41 51.02248 -0.41029 4046 ft 213 kts 310°
2026-05-07 12:42 51.03374 -0.42437 3928 ft 203 kts 328°
2026-05-07 12:42 51.04582 -0.43526 3781 ft 196 kts 330°
2026-05-07 12:42 51.05776 -0.44545 3562 ft 193 kts 332°
2026-05-07 12:42 51.07045 -0.45115 3356 ft 190 kts 355°
2026-05-07 12:43 51.08365 -0.45155 3146 ft 189 kts
2026-05-07 12:43 51.09657 -0.44814 3025 ft 190 kts 21°
2026-05-07 12:43 51.10771 -0.43721 3006 ft 190 kts 44°
2026-05-07 12:43 51.11543 -0.42027 2947 ft 190 kts 66°
2026-05-07 12:44 51.11902 -0.40013 2702 ft 189 kts 78°
2026-05-07 12:44 51.12182 -0.37975 2444 ft 188 kts 78°
2026-05-07 12:44 51.12465 -0.35934 2196 ft 185 kts 78°
2026-05-07 12:44 51.12739 -0.33968 1950 ft 183 kts 78°
2026-05-07 12:45 51.13016 -0.31979 1698 ft 180 kts 78°
2026-05-07 12:45 51.13283 -0.30066 1457 ft 178 kts 78°
2026-05-07 12:45 51.13545 -0.28181 1230 ft 162 kts 78°
2026-05-07 12:45 51.13778 -0.26508 1003 ft 149 kts 78°
2026-05-07 12:46 51.13999 -0.24930 796 ft 143 kts 78°
2026-05-07 12:46 51.14210 -0.23405 601 ft 140 kts 78°
2026-05-07 12:46 51.14420 -0.21903 413 ft 139 kts 78°
2026-05-07 12:46 51.14625 -0.20409 236 ft 138 kts 78°
2026-05-07 12:47 51.14809 -0.19084 209 ft 100 kts 77°
2026-05-07 12:47 51.14920 -0.18270 208 ft 50 kts 77°
2026-05-07 12:47 51.14984 -0.17967 211 ft 21 kts 61°
2026-05-07 12:47 51.15058 -0.17799 216 ft 8 kts 53°
2026-05-07 12:48 51.15111 -0.17763 206 ft 9 kts 354°
2026-05-07 12:48 51.15167 -0.17766 205 ft 8 kts 354°
2026-05-07 12:48 51.15232 -0.17784 207 ft 9 kts 349°
2026-05-07 12:48 51.15266 -0.17710 210 ft 10 kts 74°
2026-05-07 12:49 51.15284 -0.17584 205 ft 13 kts 77°
2026-05-07 12:49 51.15296 -0.17486 205 ft 5 kts 83°
2026-05-07 12:49 51.15303 -0.17416 216 ft 8 kts 70°
2026-05-07 12:49 51.15352 -0.17351 211 ft 11 kts 43°
2026-05-07 12:50 51.15381 -0.17230 214 ft 12 kts 73°
2026-05-07 12:50 51.15398 -0.17151 205 ft 6 kts 65°
2026-05-07 12:50 51.15416 -0.17076 205 ft 9 kts 77°
2026-05-07 12:50 51.15430 -0.16967 205 ft 11 kts 78°
2026-05-07 12:51 51.15448 -0.16836 213 ft 11 kts 77°
2026-05-07 12:51 51.15466 -0.16766 212 ft 6 kts 37°
2026-05-07 12:51 51.15484 -0.16774 205 ft 3 kts 342°
2026-05-07 12:51 51.15500 -0.16780 205 ft 2 kts 346°
2026-05-07 12:52 51.15506 -0.16782 207 ft 0 kts 346°
2026-05-07 12:52 51.15507 -0.16783 208 ft 0 kts 346°